User: anonymous   Login
Location: Bothwell
(42.3833°S, 147.0000°E)
Time: 00:54:07
(UTC+10:00)
Language:

UKube-1 - Orbit

View from above orbital plane
View from above orbital plane
View from above satellite
View from above satellite

Ground track
Ground track

The orbit data is extracted from the following two-line orbital elements,

1 40074U 14037F   22274.09979187  .00002212  00000-0  26166-3 0  9998
2 40074  98.3663 160.2305 0003620 326.3981  33.7005 14.85733334445756
Epoch (UTC): 01 October 2022 02:23:42
Eccentricity: 0.0003620
inclination: 98.3663°
perigee height: 609 km
apogee height: 614 km
right ascension of ascending node: 160.2305°
argument of perigee: 326.3981°
revolutions per day: 14.85733334
mean anomaly at epoch: 33.7005°
orbit number at epoch: 44575

The dashed part of the orbit path shows where the satellite is in the earth's shadow,  

DLR